Miscellaneous Local Product
Issued by NWS North Platte, NE

Home | Current Version | Previous Version | Text Only | Print | Product List | Glossary On
Versions: 1 2 3 4 5 6 7 8 9 10 11 12 13 14 15 16 17 18 19 20 21 22 23 24 25 26 27 28 29 30 31 32 33 34 35 36 37 38 39 40 41 42 43 44 45 46 47 48 49 50
000
AXUS43 KLBF 161910
MISLBF


WESTERN AND NORTH CENTRAL NEBRASKA HOURLY WEATHER ROUNDUP
NATIONAL WEATHER SERVICE NORTH PLATTE NE
200 PM CDT TUE SEP 16 2014

***STATIONS NOT REPORTING VARIABLES SUCH AS SKY/WEATHER OR
PRESSURE ARE PROVIDED BY THE NEBRASKA DEPARTMENT OF
ROADS...RAWS...AND APRS NETWORKS...AND ARE NOT UNDER
NATIONAL WEATHER SERVICE QUALITY CONTROL***

...OBSERVATIONS IN AND NEAR THE EASTERN PANHANDLE OF NEBRASKA...

CITY           SKY/WX    TMP DP  RH WIND       PRES   REMARKS
PINE RIDGE     SUNNY     76  52  43 W6        30.02F
CHADRON        SUNNY     79  51  37 SW8       30.00F
ALLIANCE       SUNNY     78  50  37 NW10      30.04F
SIDNEY         SUNNY     84  45  25 N13       30.07F
WHITECLAY        N/A     77  48  35 CALM        N/A
RUSHVILLE        N/A     83  38  19 SW5         N/A
CRESCENT LAKE    N/A     77  53  43 N7          N/A
LISCO            N/A     80  56  42 SW10        N/A
BIG SPRINGS      N/A     75  57  54 W6          N/A
$$

...OBSERVATIONS IN NORTH CENTRAL NEBRASKA...

CITY           SKY/WX    TMP DP  RH WIND       PRES   REMARKS
VALENTINE      SUNNY     75  55  49 W7        29.98F
THEDFORD       SUNNY     76  57  51 SW15G22   30.01F
AINSWORTH      SUNNY     71  55  56 S10G20    30.00F
O`NEILL        MOSUNNY   69  56  62 S17       30.03F
ORD            CLOUDY    67  55  65 S14       30.05F
BROKEN BOW     CLOUDY    66  54  65 S18G25    30.06F
SPRINGVIEW       N/A     73  57  57 SW8         N/A
ROSE             N/A     74  60  61 SE17        N/A
NEWPORT          N/A     74  58  55 S16         N/A
COMSTOCK         N/A     72  60  64 S12         N/A
CHAMBERS         N/A     70  54  56 S9G18       N/A
$$

...OBSERVATIONS IN SOUTHWEST NEBRASKA AND FAR NORTHEAST COLORADO...

CITY           SKY/WX    TMP DP  RH WIND       PRES   REMARKS
WRAY           FAIR      84  51  32 W7        30.04F
HOLYOKE        FAIR      82  57  42 S7        30.03F
IMPERIAL       SUNNY     79  54  41 SW13G18   30.02F
OGALLALA       SUNNY     79  58  48 W7        30.01F
NORTH PLATTE   MOSUNNY   71  56  58 S14       30.03F
MCCOOK         MOSUNNY   73  56  54 S14G23    30.05F
LEXINGTON      CLOUDY    64  56  77 S8        30.07F
PAXTON           N/A     73  60  64 S12         N/A
SUTHERLAND       N/A     77  58  51 S9          N/A
BRADY            N/A     70  58  66 CALM        N/A
GOTHENBURG       N/A     63  52  67 S7          N/A
CALLAWAY         N/A     61  55  82 S12         N/A
$$

...SOME WEATHER OBSERVATIONS FROM AROUND THE REGION...

CITY           SKY/WX    TMP DP  RH WIND       PRES   REMARKS
DENVER         MOSUNNY   85  31  14 NW3       30.16F
LARAMIE        SUNNY     75  29  18 NW22G31   30.28F
CHEYENNE       SUNNY     80  30  16 N13G25    30.20F
SCOTTSBLUFF    MOSUNNY   81  52  36 SW12      30.06F
RAPID CITY     SUNNY     77  45  32 MISG      30.00F
PIERRE         SUNNY     71  52  50 VRB5      29.95F
WINNER         FAIR      72  53  51 SW13      29.97F
SIOUX FALLS    PTSUNNY   67  48  50 S13       30.07F
OMAHA          SUNNY     65  47  52 SE9       30.13F
GRAND ISLAND   SUNNY     70  53  54 S15       30.09F
KANSAS CITY    MOSUNNY   66  51  58 MISG      30.16F
WICHITA        PTSUNNY   73  57  57 VRB3      30.12F
HAYS           CLOUDY    66  55  68 S14       30.12F
LIBERAL        SUNNY     81  61  50 S16G23    30.13F
GOODLAND       SUNNY     77  55  46 SW14G23   30.07F
$$



USA.gov is the U.S. government's official web portal to all federal, state and local government web resources and services.